This demonstration page uses our WeatherBlox Daily Observations layout. Learn more.

Left ArrowRight Arrow

Hourly Observations for November 13, 2020

Temp ( °F °C ) Dew Point ( °F °C ) Humidity (%) Winds ( mph kmh ) Pressure ( in mb ) Visibility ( mi km ) Precip ( " mm )
12:54 am 00:54 Clear 22 -5.6 18 -7.8 85 85 Calm 30.32 1027 10 16.0934 0 0
1:54 am 01:54 Clear 19 -7.2 15 -9.4 84 84 Calm 30.32 1027 10 16.0934 0 0
2:54 am 02:54 Clear 20 -6.7 16 -8.9 85 85 S 3 6 30.32 1027 10 16.0934 0 0
3:54 am 03:54 Clear 18 -7.8 14 -10 84 84 S 3 6 30.31 1026 8 12.87472 0 0
4:54 am 04:54 Clear 20 -6.7 16 -8.9 85 85 Calm 30.32 1027 10 16.0934 0 0
5:54 am 05:54 Clear 19 -7.2 15 -9.4 84 84 Calm 30.31 1027 10 16.0934 0 0
6:54 am 06:54 Clear 17 -8.3 13 -10.6 84 84 S 3 6 30.32 1027 10 16.0934 0 0
7:54 am 07:54 Sunny 19 -7.2 15 -9.4 84 84 S 7 11 30.32 1027 10 16.0934 0 0
8:54 am 08:54 Sunny 26 -3.3 21 -6.1 81 81 SSW 7 11 30.33 1027 10 16.0934 0 0
9:54 am 09:54 Sunny 33 0.6 22 -5.6 64 64 SSW 16 26 30.31 1026 10 16.0934 0 0
10:54 am 10:54 Sunny 37 2.8 22 -5.6 54 54 SSW 15 24 30.27 1025 10 16.0934 0 0
11:54 am 11:54 Sunny 41 5 23 -5 49 49 S 18 30 30.22 1023 10 16.0934 0 0
12:54 pm 12:54 Sunny 44 6.7 22 -5.6 41 41 SSW 18 30 30.17 1022 10 16.0934 0 0
1:54 pm 13:54 Sunny 45 7.2 20 -6.7 37 37 S 26 43 30.11 1020 10 16.0934 0 0
2:54 pm 14:54 Sunny 47 8.3 20 -6.7 34 34 S 23 37 30.06 1018 10 16.0934 0 0
3:54 pm 15:54 Sunny 46 7.8 19 -7.2 34 34 S 24 39 30.03 1017 10 16.0934 0 0
4:54 pm 16:54 Sunny 44 6.7 20 -6.7 38 38 S 20 31 30.01 1016 10 16.0934 0 0
5:54 pm 17:54 Clear 37 2.8 21 -6.1 52 52 S 10 17 30.01 1016 10 16.0934 0 0
6:54 pm 18:54 Clear 31 -0.6 19 -7.2 61 61 S 8 13 30.01 1016 10 16.0934 0 0
7:54 pm 19:54 Clear 33 0.6 20 -6.7 58 58 SSE 13 20 29.98 1015 10 16.0934 0 0
8:54 pm 20:54 Clear 34 1.1 20 -6.7 56 56 S 14 22 29.96 1014 10 16.0934 0 0
9:54 pm 21:54 Clear 34 1.1 21 -6.1 59 59 S 13 20 29.91 1013 10 16.0934 0 0
10:54 pm 22:54 Clear 31 -0.6 20 -6.7 64 64 S 7 11 29.91 1013 10 16.0934 0 0
11:54 pm 23:54 Clear 32 0 23 -5 69 69 SSE 10 17 29.85 1011 10 16.0934 0 0

Powered by AerisWeather